Погода в Исити

Погода в Исити : погода сейчас, прогноз погоды и архив. Всё, что Вы хотите узнать о погоде в Исити!

Хотите узнать прогноз погоды в Исити? Тогда Вам сюда: Погода в Исити

Поиск расширенной информации на нашем сайте:

Другие новости

Новости СМИ2

Главная страница сайта

Новости сайта

03.07.2017

Напоминаем, что на нашем специализированном сайте Метеоцентр.Азия вы можете получить высокодетализированные автоматические прогнозы погоды по пунктам России, СНГ и мира в авиационном формате (включающие направление и скорость ветра, видимость, явления погоды, количество и форму облачности, нижнюю и верхнюю границу облачности).


Погода в Исити - сегодня

Время (UTC), дата Ветер
(°,м/с) 
Видим.   Явления Облачность Т
(°С)
Тd
(°С)
f(%) Тe
(°С)
Pmin
(гПа)
dP
(гПа)
Po
(мм)
O2
(г/м3)
Тmin Tmax R s Состояние
почвы
21 21.05.18 090 (В) 20000 м    10/3 1000 м средняя 
[Sc|As op]
+7 -1.5 55 +6  1002.5  -2.2  740  291           
00 22.05.18 090 (В) 20000 м    10/0 средняя, верхняя 
[Ac As|Cs]
+6.5 +0.4 65 +6  1000.8  -1.7  739  291  +6.2        влажная 
03 22.05.18 100 (В) 2{10}  20000 м    10/0 средняя 
[As op]
+7.5 +1 63 +7  996.8  -3.9  736  288           
12 22.05.18 080 (В) 4{12}  20000 м    10/3 1000 м средняя, верхняя 
[Sc|Ac lent|Cs]
+16 -2.1 29 +16  991.9  -0.6  733  279    +16.4  0.0     
18 22.05.18 080 (В) 20000 м  {дождь}  10/0 средняя, верхняя 
[Ac As|Cs]
+14.4 -1.2 34 +14  990.7  -1.1  732  280           
21 22.05.18 110 (В) 20000 м    8/0 средняя, верхняя 
[Ac lent|Ci sp]
+9.4 +0.8 55 +9  991.6  0.6  732  285           
00 23.05.18 110 (В) 20000 м    ясно 
+10 +2.8 61 +10  992.5  0.9  734  284  +8.3    0.0    влажная 
03 23.05.18 090 (В) 20000 м    10/10 1000 м кучево-дожд. 
[Cb calv]
+12.6 +4 56 +13  992.6  0.3  748  287           
06 23.05.18 110 (В) 20000 м    4/0 верхняя 
[Ci sp]
+15.1 +5.2 52 +16  992  -0.5  733  279           
09 23.05.18 140 (ЮВ) 20000 м    8/5 1000 м кучево-дожд., средняя, верхняя 
[Cb calv|Ac trans|Ci sp]
+16.6 +6.7 52 +18  991.9  733  277           
12 23.05.18 тихо ()   20000 м    4/0 средняя 
[Ac lent]
+12.3 +4.7 60 +12  993.1  0.9  733  282    +19.5       
15 23.05.18 280 (З) 20000 м    ясно 
+14.5 +1.4 41 +15  996.6  3.6  736  281           
18 23.05.18 270 (З) 20000 м    3/0 средняя, верхняя 
[Ac trans|Ci fib]
+9.3 +2.2 61 +10  998.3  1.4  737  287           
21 23.05.18 270 (З) 20000 м    3/0 средняя, верхняя 
[Ac trans|Ci fib]
+6.9 +3.6 79 +7  1000.5  739  290           
00 24.05.18 270 (З) 20000 м    6/0 верхняя 
[Ci fib]
+11.5 +5.6 67 +11  1001.1  0.9  739  285  +6.4        влажная 
03 24.05.18 270 (З) 20000 м    3/0 верхняя 
[Ci fib]
+17.7 +5.5 45 +18  1001  0.2  739  279           
06 24.05.18 270 (З) 20000 м    1/0 верхняя 
[Ci fib]
+21.1 +2.7 30 +21  1000.7  -0.1  739  276           
09 24.05.18 270 (З) 20000 м    4/0 верхняя 
[Ci fib]
+22.7 +3.2 28 +23  1000.9  0.2  739  275           
12 24.05.18 290 (З) 20000 м    3/0 верхняя 
[Ci fib]
+20 +4.6 36 +20  1002.5  1.5  741  277    +23.1       
15 24.05.18 280 (З) 20000 м    3/1 1000 м верхняя 
[Sc|Ci fib]
+14.8 +1.9 42 +15  1004.7  1.8  742  283           
18 24.05.18 280 (З) 20000 м    9/0 средняя 
[Ac und]
+9.7 +3 63 +10  1007.6  2.7  744  289           
21 24.05.18 270 (З) 20000 м    8/4 1000 м средняя, верхняя 
[Sc|Ac trans|Ci fib]
+10 +1.4 55 +10  1009.1  1.4  745  289           
00 25.05.18 270 (З) 20000 м    4/3 1000 м средняя 
[Sc|Ac trans]
+13 +1.3 45 +13  1011  2.1  747  287  +9.7        сухая 
03 25.05.18 260 (З) 20000 м    4/0 средняя, верхняя 
[Ac lent|Ci sp]
+20.3 -1.5 23 +20  1010  -0.6  746  280           
06 25.05.18 260 (З) 20000 м    6/3 1000 м средняя, верхняя 
[Cu hum|Ac lent|Ci sp]
+23.8 +0.8 22 +24  1009.4  -0.4  746  276           
Время (UTC), дата Ветер
(°,м/с) 
Видим.   Явления Облачность Т
(°С)
Тd
(°С)
f(%) Тe
(°С)
Pmin
(гПа)
dP
(гПа)
Po
(мм)
O2
(г/м3)
Тmin Tmax R s Состояние
почвы

Для получения пояснительной информации подведите курсор к названию столбца.

ПОГОДА в Исити - архив

Всё, что Вы хотите узнать о погоде в Исити - удобно и подробно!

Выберите нужную дату (начиная с 1 января 2015* года) и нажмите кнопку "Найти".
Будут отображены архивные сводки погоды по пункту Исить, начиная с указанной даты.


Отображать данные в формате CSV (для использования в таблицах Excel)


Внимание! Наш архив погоды предназначен исключительно для личного некоммерческого использования в познавательных целях. Если Вам необходимы официальные справки о состоянии погоды (для производственных, юридических, коммерческих и т.п. целей), обращайтесь в органы Росгидромета.

*Примечание: данная дата относится к архиву по метеостанциям СССР (Россия, СНГ, Балтия).
Архив по метеостанциям Зарубежной Европы и Азии (кроме Китая) хранится 10 дней, по другим регионам земного шара (Китай, Африка, Америка, Австралия, Океания) - 1 день.

Исить - район местоположения метеостанции


Название, широта, долгота, высота метеостанции:
Исить 60.8°ш. 125.3°д. 118 м над ур. моря [Российская Федерация]

Дополнительная информация

В oтличие oт бoльшинства пoгoдных сайтoв мы публикуем пoдрoбную метеoинфoрмацию в детальнoм прoфессиoнальнoм фoрмате.

Характеристики температуры и влажнoсти вoздуха измеряются на высoте 2 м в тени вдали oт зданий и деревьев.
Скoрoсть ветра измеряется на высoте 10 м (на урoвне рoста челoвека скoрoсть ветра ниже в 1.5-2 раза). Если метеoстанция нахoдится в гoрoде или в лесу, тo скoрoсть ветра занижена на 2-4 м/с пo сравнению с oткрытым местoм. Скoрoсть ветра над акватoриями крупных рек и oзёр, а также на вершинах хoлмoв на 2-5 м/с выше, чем в oбычных услoвиях.
Атмoсфернoе давление в разных тoчках местнoсти мoжет значительнo oтличаться oт давления на метеoстанции, в зависимoсти oт услoвий рельефа (при пoдъёме на 10 м давление пoнижается примернo на 1 мм рт.ст.).